Tracking 20942 objects as of 4-Jul-2020
HD Live streaming from Space Station
objects crossing your sky now

FLOCK 4P 3

Track FLOCK 4P 3 now!
10-day predictions
FLOCK 4P 3 is classified as:


NORAD ID: 44812
Int'l Code: 2019-081J
Perigee: 504.6 km
Apogee: 521.4 km
Inclination: 97.5 °
Period: 94.7 minutes
Semi major axis: 6883 km
RCS: Unknown
Launch date: November 27, 2019
Source: United States (US)
Launch site: SRIHARIKOTA (SRI)
aabbcc
Your satellite tracking list
Your tracking list is empty




NASA's NSSDC Master Catalog

Two Line Element Set (TLE):
1 44812U 19081J   20185.72744706  .00000817  00000-0  41094-4 0  9999
2 44812  97.4959 246.6409 0012207 184.3939 175.7191 15.20008272 33345
Source of the keplerian elements: AFSPC